{"data":{"norad_id":39728,"epoch":"2026-09-19T10:24:14.688576Z","epoch_age_seconds":113987,"freshness":"FRESH","line1":"1 39728U 14023B   26262.43350334  .00000000  00000+0  00000+0 0  9990","line2":"2 39728   0.0129 174.6381 0000294  91.0561 307.2215  1.00272785 43403","mean_motion":1.00272785,"eccentricity":2.94e-5,"inclination_deg":0.0129,"raan_deg":174.6381,"arg_perigee_deg":91.0561,"mean_anomaly_deg":307.2215,"bstar":0,"rev_number":4340,"period_min":1436.0825821283,"perigee_km":35785.074992342,"apogee_km":35787.554262097,"semimajor_km":42164.451627219,"source":"CELESTRAK","updated_at":"2026-09-20T09:00:35.210901Z"}}